When you browse on this site, cookies collect data to enhance your experience and personalize the content and advertising you see.
Visit our Privacy Policy to learn more. By continuing to use the site, you agree to this use of cookies and data.
  • Em Portugal
  • Lista de países
  • Para 7 dias
  • Temperatura da água
  • Mapas de satélite
  • Mapa do tempo
  • Widgets de tempo
  • user-avatar
    Iniciar Sessão

    Previsão horária em Balho

    Hoje, 22 Maio, Quarta-feira

    Tempo Temperatura Precipitação Vento Pressão Humidade
    00:00 +35°C° 0.1 mm 4 m/s 735 mmHg 49%
    01:00 +35°C° 0 mm 4 m/s 735 mmHg 50%
    02:00 +34°C° 0 mm 4 m/s 735 mmHg 51%
    03:00 +34°C° 0 mm 3 m/s 735 mmHg 52%
    04:00 +34°C° 0 mm 3 m/s 735 mmHg 52%
    05:00 +34°C° 0 mm 3 m/s 735 mmHg 53%
    06:00 +34°C° 0 mm 3 m/s 735 mmHg 53%
    07:00 +34°C° 0 mm 3 m/s 736 mmHg 50%
    08:00 +35°C° 0 mm 3 m/s 736 mmHg 47%
    09:00 +36°C° 0 mm 4 m/s 737 mmHg 44%
    10:00 +37°C° 0 mm 3 m/s 737 mmHg 41%
    11:00 +38°C° 0 mm 3 m/s 737 mmHg 39%
    12:00 +38°C° 0 mm 3 m/s 737 mmHg 36%
    13:00 +38°C° 0.1 mm 2 m/s 736 mmHg 36%
    14:00 +38°C° 0.1 mm 2 m/s 736 mmHg 37%
    15:00 +38°C° 0.1 mm 2 m/s 735 mmHg 37%
    16:00 +38°C° 0.2 mm 2 m/s 735 mmHg 39%
    17:00 +37°C° 0.2 mm 2 m/s 735 mmHg 40%
    18:00 +37°C° 0.2 mm 3 m/s 734 mmHg 42%
    19:00 +36°C° 0.4 mm 2 m/s 735 mmHg 44%
    20:00 +36°C° 0.4 mm 2 m/s 735 mmHg 45%
    21:00 +35°C° 0.4 mm 1 m/s 735 mmHg 47%
    22:00 +34°C° 0.3 mm 1 m/s 735 mmHg 48%
    23:00 +34°C° 0.3 mm 1 m/s 736 mmHg 49%

    Amanhã, 23 Maio, Quinta-feira

    Tempo Temperatura Precipitação Vento Pressão Humidade
    00:00 +34°C° 0.3 mm 1 m/s 736 mmHg 50%
    01:00 +34°C° 0 mm 1 m/s 735 mmHg 51%
    02:00 +34°C° 0 mm 1 m/s 735 mmHg 51%
    03:00 +33°C° 0 mm 1 m/s 735 mmHg 51%
    04:00 +33°C° 0 mm 1 m/s 735 mmHg 52%
    05:00 +33°C° 0 mm 1 m/s 735 mmHg 52%
    06:00 +33°C° 0 mm 1 m/s 736 mmHg 52%
    07:00 +33°C° 0 mm 1 m/s 736 mmHg 49%
    08:00 +35°C° 0 mm 2 m/s 737 mmHg 47%
    09:00 +35°C° 0 mm 2 m/s 737 mmHg 44%
    10:00 +36°C° 0 mm 2 m/s 737 mmHg 41%
    11:00 +37°C° 0 mm 3 m/s 737 mmHg 39%
    12:00 +37°C° 0 mm 3 m/s 737 mmHg 36%
    13:00 +38°C° 0 mm 3 m/s 736 mmHg 35%
    14:00 +38°C° 0 mm 3 m/s 735 mmHg 34%
    15:00 +39°C° 0 mm 3 m/s 734 mmHg 32%
    16:00 +38°C° 0 mm 3 m/s 734 mmHg 33%
    17:00 +38°C° 0 mm 4 m/s 734 mmHg 34%
    18:00 +38°C° 0 mm 4 m/s 734 mmHg 35%
    19:00 +37°C° 0 mm 4 m/s 734 mmHg 37%
    20:00 +37°C° 0 mm 4 m/s 735 mmHg 40%
    21:00 +36°C° 0 mm 4 m/s 735 mmHg 43%
    22:00 +36°C° 0 mm 3 m/s 735 mmHg 44%
    23:00 +35°C° 0 mm 3 m/s 735 mmHg 46%

    Depois de amanhã, 24 Maio, Sexta-feira

    Tempo Temperatura Precipitação Vento Pressão Humidade
    00:00 +35°C° 0 mm 3 m/s 735 mmHg 48%
    01:00 +35°C° 0 mm 2 m/s 735 mmHg 49%
    02:00 +34°C° 0 mm 2 m/s 735 mmHg 50%
    03:00 +34°C° 0 mm 2 m/s 734 mmHg 51%
    04:00 +34°C° 0 mm 2 m/s 735 mmHg 52%
    05:00 +34°C° 0 mm 2 m/s 735 mmHg 53%
    06:00 +32°C° 0 mm 2 m/s 735 mmHg 54%
    07:00 +35°C° 0 mm 2 m/s 736 mmHg 50%
    08:00 +36°C° 0 mm 3 m/s 737 mmHg 45%
    09:00 +37°C° 0 mm 4 m/s 737 mmHg 41%
    10:00 +38°C° 0 mm 4 m/s 737 mmHg 37%
    11:00 +40°C° 0 mm 5 m/s 736 mmHg 34%
    12:00 +41°C° 0 mm 5 m/s 736 mmHg 30%
    13:00 +41°C° 0 mm 5 m/s 735 mmHg 29%
    14:00 +42°C° 0 mm 5 m/s 735 mmHg 27%
    15:00 +42°C° 0 mm 4 m/s 734 mmHg 26%
    16:00 +42°C° 0 mm 4 m/s 734 mmHg 27%
    17:00 +42°C° 0 mm 4 m/s 734 mmHg 27%
    18:00 +41°C° 0 mm 4 m/s 733 mmHg 27%
    19:00 +41°C° 0 mm 4 m/s 734 mmHg 29%
    20:00 +40°C° 0 mm 4 m/s 734 mmHg 31%
    21:00 +38°C° 0 mm 4 m/s 735 mmHg 33%
    22:00 +37°C° 0 mm 4 m/s 735 mmHg 35%
    23:00 +37°C° 0 mm 4 m/s 735 mmHg 37%

    25 Maio, Sábado

    Tempo Temperatura Precipitação Vento Pressão Humidade
    00:00 +36°C° 0 mm 4 m/s 735 mmHg 39%
    01:00 +35°C° 0 mm 4 m/s 734 mmHg 41%
    02:00 +35°C° 0 mm 3 m/s 734 mmHg 43%
    03:00 +34°C° 0 mm 3 m/s 734 mmHg 45%
    04:00 +34°C° 0 mm 3 m/s 734 mmHg 47%
    05:00 +34°C° 0 mm 3 m/s 735 mmHg 49%
    06:00 +33°C° 0 mm 3 m/s 735 mmHg 51%
    07:00 +35°C° 0 mm 3 m/s 736 mmHg 45%
    08:00 +36°C° 0 mm 4 m/s 736 mmHg 40%
    09:00 +39°C° 0 mm 5 m/s 737 mmHg 34%
    10:00 +40°C° 0 mm 5 m/s 736 mmHg 31%
    11:00 +41°C° 0 mm 5 m/s 736 mmHg 28%
    12:00 +42°C° 0 mm 5 m/s 736 mmHg 24%
    13:00 +42°C° 0 mm 4 m/s 735 mmHg 22%
    14:00 +43°C° 0 mm 4 m/s 734 mmHg 20%
    15:00 +43°C° 0 mm 3 m/s 733 mmHg 18%
    16:00 +43°C° 0 mm 3 m/s 733 mmHg 18%
    17:00 +43°C° 0 mm 3 m/s 733 mmHg 18%
    18:00 +43°C° 0 mm 3 m/s 733 mmHg 18%
    19:00 +42°C° 0 mm 3 m/s 734 mmHg 20%
    20:00 +41°C° 0 mm 4 m/s 734 mmHg 22%
    21:00 +41°C° 0 mm 4 m/s 734 mmHg 24%
    22:00 +39°C° 0 mm 3 m/s 734 mmHg 25%
    23:00 +38°C° 0 mm 3 m/s 734 mmHg 27%

    26 Maio, Domingo

    Tempo Temperatura Precipitação Vento Pressão Humidade
    00:00 +37°C° 0 mm 2 m/s 734 mmHg 28%
    01:00 +37°C° 0 mm 2 m/s 733 mmHg 29%
    02:00 +36°C° 0 mm 2 m/s 733 mmHg 31%
    03:00 +35°C° 0 mm 2 m/s 733 mmHg 32%
    04:00 +34°C° 0 mm 2 m/s 733 mmHg 34%
    05:00 +34°C° 0 mm 2 m/s 733 mmHg 36%
    06:00 +32°C° 0 mm 2 m/s 734 mmHg 38%
    07:00 +35°C° 0 mm 2 m/s 734 mmHg 34%
    08:00 +36°C° 0 mm 2 m/s 735 mmHg 31%
    09:00 +37°C° 0 mm 2 m/s 735 mmHg 27%
    10:00 +38°C° 0 mm 3 m/s 735 mmHg 26%
    11:00 +40°C° 0 mm 3 m/s 734 mmHg 24%
    12:00 +42°C° 0 mm 3 m/s 734 mmHg 23%
    13:00 +42°C° 0 mm 3 m/s 733 mmHg 21%
    14:00 +42°C° 0 mm 2 m/s 733 mmHg 20%
    15:00 +42°C° 0 mm 2 m/s 732 mmHg 19%
    16:00 +42°C° 0 mm 2 m/s 732 mmHg 19%
    17:00 +42°C° 0 mm 2 m/s 732 mmHg 18%
    18:00 +42°C° 0 mm 2 m/s 732 mmHg 18%
    19:00 +42°C° 0 mm 2 m/s 733 mmHg 20%
    20:00 +42°C° 0 mm 3 m/s 733 mmHg 22%
    21:00 +40°C° 0 mm 3 m/s 733 mmHg 24%
    22:00 +40°C° 0 mm 3 m/s 733 mmHg 26%
    23:00 +39°C° 0 mm 3 m/s 733 mmHg 28%

    27 Maio, Segunda-feira

    Tempo Temperatura Precipitação Vento Pressão Humidade
    00:00 +38°C° 0 mm 3 m/s 733 mmHg 30%
    01:00 +38°C° 0 mm 2 m/s 732 mmHg 31%
    02:00 +37°C° 0 mm 2 m/s 732 mmHg 32%
    03:00 +36°C° 0 mm 2 m/s 732 mmHg 34%
    04:00 +36°C° 0 mm 2 m/s 733 mmHg 35%
    05:00 +35°C° 0 mm 2 m/s 733 mmHg 36%
    06:00 +35°C° 0 mm 2 m/s 733 mmHg 37%
    07:00 +36°C° 0 mm 2 m/s 734 mmHg 33%
    08:00 +37°C° 0 mm 2 m/s 734 mmHg 29%
    09:00 +38°C° 0 mm 3 m/s 735 mmHg 25%
    10:00 +39°C° 0 mm 3 m/s 734 mmHg 22%
    11:00 +41°C° 0 mm 2 m/s 734 mmHg 20%
    12:00 +42°C° 0 mm 2 m/s 734 mmHg 17%
    13:00 +42°C° 0 mm 2 m/s 733 mmHg 16%
    14:00 +43°C° 0 mm 2 m/s 732 mmHg 16%
    15:00 +43°C° 0 mm 2 m/s 732 mmHg 16%
    16:00 +43°C° 0 mm 2 m/s 732 mmHg 16%
    17:00 +44°C° 0 mm 3 m/s 732 mmHg 17%
    18:00 +44°C° 0 mm 3 m/s 732 mmHg 17%
    19:00 +43°C° 0 mm 3 m/s 732 mmHg 20%
    20:00 +42°C° 0 mm 4 m/s 733 mmHg 22%
    21:00 +41°C° 0 mm 4 m/s 733 mmHg 25%
    22:00 +41°C° 0 mm 4 m/s 733 mmHg 25%
    23:00 +39°C° 0 mm 3 m/s 733 mmHg 26%
    Mostrar mais